User: anonymous   Login
Location: Mentone
(34.5413°N, 85.5351°W)
Time: 15:48:42
(UTC-05:00)
Language:

ERBS - Orbit

View from above orbital plane
View from above orbital plane
View from above satellite
View from above satellite

Ground track
Ground track

The orbit data is extracted from the following two-line orbital elements,

1 15354U 84108B   15088.12874167  .00018043  00000-0  54409-3 0  9998
2 15354 057.0130 010.4834 0016419 030.7460 329.4549 15.34315841673262
Epoch (UTC): 29 March 2015 03:05:23
Eccentricity: 0.0016419
inclination: 57.0130°
perigee height: 452 km
apogee height: 474 km
right ascension of ascending node: 10.4834°
argument of perigee: 30.7460°
revolutions per day: 15.34315841
mean anomaly at epoch: 329.4549°
orbit number at epoch: 67326

The dashed part of the orbit path shows where the satellite is in the earth's shadow,  

DLR